Wind_Speed
24 26 27 28 29 25 24 25 30 29 34 34 35 35 27 24 23 28 32 23 18 16 17 21 23 26 26 27 30 33 35 38 38 38 37 35 36 40 41 38 35 33 34 30
21 21 24 23 23 23 24 27 28 30 28 25 27 24 19 22 21 14 15 15 17 19 20 22 24 26 29 31 33 33 35 40 42 42 40 38 42 48 46 46 39 35 37 32
20 18 18 20 17 18 20 25 26 26 28 25 19 21 20 16 16 18 16 16 17 19 20 22 23 26 29 30 33 35 38 38 40 43 38 38 43 52 54 48 46 43 34 32
19 16 16 16 17 20 26 29 30 27 20 19 22 16 14 15 16 15 14 16 18 19 20 21 24 26 27 30 33 37 36 34 38 37 32 33 41 49 57 55 47 36 34 23
17 15 17 18 23 26 29 30 24 20 22 20 18 18 17 13 12 14 15 16 16 18 20 22 23 25 29 29 30 32 31 30 27 22 23 33 37 45 54 60 50 46 41 40
16 16 19 22 27 28 26 25 25 20 16 15 15 14 13 12 14 14 13 14 15 18 21 21 22 25 27 26 21 23 22 23 29 28 20 21 25 30 46 40 46 44 22 22
15 19 21 28 29 27 23 23 23 19 19 17 14 13 13 13 13 13 12 11 16 19 19 20 23 25 24 16 16 19 20 27 25 21 14 12 8 13 33 37 41 27 30 26
19 21 31 28 27 24 23 25 23 20 16 16 15 14 14 12 12 11 11 14 16 17 18 20 22 23 14 12 17 24 24 22 19 10 8 7 11 16 16 24 28 28 23 17
21 25 27 27 27 26 26 23 20 18 18 16 13 13 13 12 11 11 12 13 15 17 18 20 19 10 6 14 17 15 15 13 12 12 9 4 11 21 22 24 27 35 17 15
24 28 30 28 27 28 26 21 19 20 16 14 14 12 11 10 10 11 12 14 15 16 18 17 6 7 6 7 4 2 10 6 6 4 3 4 8 20 23 22 33 27 22 12
32 32 29 26 29 28 27 22 19 19 17 15 13 12 11 11 11 11 12 13 15 16 16 9 12 8 7 10 4 6 3 2 2 6 7 2 2 26 11 32 21 38 18 18
34 31 30 28 30 27 26 21 20 18 14 13 13 13 12 11 10 11 13 13 14 14 13 12 16 10 11 10 12 4 7 12 5 1 12 6 2 16 16 26 29 18 19 17
31 31 29 30 30 26 26 23 19 16 15 14 13 13 11 12 12 12 12 13 13 13 8 16 18 11 12 3 5 11 5 7 6 7 3 5 8 14 14 12 13 12 10 8
25 26 27 23 25 26 22 20 17 16 15 14 14 13 13 13 12 12 12 11 11 11 7 15 18 14 9 3 2 6 8 5 2 3 1 6 6 12 12 11 10 11 9 7
27 24 23 24 23 22 21 18 17 16 15 13 13 14 15 14 14 14 13 11 9 10 8 15 17 14 11 9 2 4 8 7 5 1 3 6 9 7 8 9 11 10 10 9
28 28 25 23 22 23 20 18 17 17 16 15 15 15 15 15 15 14 14 13 13 11 11 16 20 14 11 10 8 3 6 5 5 3 6 8 9 7 5 6 6 7 8 5
29 28 24 22 22 20 19 18 18 16 16 14 14 15 15 16 15 15 16 18 17 17 14 14 21 15 11 9 8 7 4 2 6 5 3 9 12 8 6 5 7 8 7 7
25 24 22 21 20 19 18 17 17 16 15 14 14 14 16 16 16 17 20 17 17 19 21 18 19 17 14 12 8 4 5 7 8 11 9 10 9 10 11 10 10 9 9 8
23 22 21 19 19 19 18 17 15 14 13 12 14 15 15 14 17 17 15 12 11 13 18 18 21 19 14 11 4 3 4 8 12 11 14 15 13 8 8 8 7 6 6 7
24 23 22 22 21 18 17 15 14 12 11 12 14 14 12 14 8 4 5 2 7 9 14 17 21 16 13 9 2 5 6 4 5 13 13 12 10 8 7 9 8 5 6 10
25 24 22 21 19 18 16 14 11 10 11 12 13 12 11 5 7 7 6 7 9 14 14 17 18 15 12 7 2 7 2 2 6 10 12 11 11 9 6 5 6 9 13 17
26 25 23 21 18 17 15 11 9 11 11 12 10 5 9 14 12 9 9 10 10 14 15 16 14 11 6 4 5 5 7 10 8 8 8 7 5 4 3 8 13 17 21 22
25 24 22 20 18 15 11 10 11 10 10 6 5 16 19 16 13 11 9 8 14 14 14 11 9 8 7 6 7 11 12 11 9 8 6 3 2 7 12 16 15 14 16 19
24 22 20 18 16 13 11 11 9 8 7 9 22 23 19 14 11 11 13 16 14 13 10 9 10 10 9 11 12 10 8 6 4 0 4 8 11 8 8 10 11 12 14 16
23 21 19 18 13 13 13 11 7 8 15 24 24 20 16 14 14 12 10 7 8 4 8 7 11 12 9 8 7 7 5 3 4 5 4 3 5 7 10 12 15 18 21 24
22 21 19 17 16 15 15 10 12 19 23 24 21 19 13 9 7 5 7 6 6 10 9 8 10 11 11 9 7 5 4 3 3 4 5 7 11 13 16 20 24 27 30 32
22 22 20 20 19 16 14 14 22 23 23 22 18 15 11 6 6 5 5 4 3 5 6 8 9 9 8 6 5 4 4 4 6 7 10 14 17 21 26 29 32 34 35 37
Wind_Direction
251 252 254 252 256 256 252 240 231 212 201 188 196 203 209 208 220 213 212 216 214 222 232 244 251 258 265 270 273 274 276 276 276 273 267 252 247 252 248 252 257 261 272 268
247 253 245 244 244 243 240 230 223 213 207 198 201 202 206 190 185 190 202 214 222 228 232 243 252 262 268 274 276 275 275 274 274 269 263 256 238 234 242 244 249 255 263 270
241 242 243 246 244 237 230 220 197 198 198 198 192 181 173 173 182 205 212 221 234 240 245 250 258 264 271 275 274 273 272 273 274 273 268 257 244 235 229 235 242 242 248 261
231 234 239 239 228 221 206 199 186 188 179 181 172 168 176 189 200 213 222 231 242 247 253 262 271 274 274 277 277 279 281 280 278 281 278 260 244 230 226 230 232 248 226 248
224 215 219 216 205 202 188 181 173 168 168 168 174 186 184 200 217 226 235 244 249 256 268 278 280 284 285 285 283 283 287 289 290 295 280 259 255 230 220 223 225 233 247 250
216 209 207 209 205 196 178 167 167 170 166 174 177 190 198 208 227 241 250 254 262 276 285 292 287 283 284 284 281 284 288 291 296 310 279 261 270 236 215 214 220 228 233 261
204 202 202 194 179 173 176 175 164 175 179 186 186 204 216 228 240 255 256 268 280 290 293 291 288 290 292 285 290 289 279 288 296 303 258 280 258 210 212 209 221 242 251 252
205 197 181 182 174 175 172 168 167 180 175 185 198 213 230 240 253 260 269 282 292 297 294 291 293 294 277 280 285 295 289 280 276 236 243 312 201 184 208 205 202 220 216 199
201 189 180 177 178 176 173 172 177 185 185 193 209 223 231 246 250 260 277 289 298 301 303 306 298 272 251 282 284 303 300 268 208 219 265 282 202 197 180 199 217 212 207 248
189 182 182 189 180 179 174 181 189 188 190 200 215 229 237 241 252 268 283 295 305 312 311 308 272 220 253 327 7 331 71 104 186 194 105 165 263 207 214 192 208 217 228 253
184 186 193 194 191 180 183 185 192 191 202 212 223 232 242 252 267 283 293 302 312 317 314 285 203 216 151 69 93 348 61 25 230 270 287 250 226 191 222 206 216 220 215 224
183 192 195 197 184 189 191 189 196 205 214 227 231 242 256 271 282 289 295 304 312 317 309 215 199 200 191 65 45 84 243 85 97 114 148 162 219 177 175 182 202 205 227 247
191 204 209 202 199 196 199 199 201 211 220 230 242 251 264 273 281 289 294 302 311 319 296 211 207 204 211 215 25 36 104 127 98 76 81 152 133 148 145 165 172 164 182 218
193 199 204 206 198 204 201 197 210 222 229 239 246 257 269 274 283 290 285 295 310 312 267 219 219 219 224 214 29 53 59 68 233 90 245 157 127 129 139 158 180 199 209 232
197 190 188 198 195 198 206 206 220 230 237 246 256 262 274 281 287 283 281 287 297 288 271 223 211 205 210 194 195 57 70 61 76 151 139 157 156 163 190 200 207 209 237 262
185 186 196 197 199 207 209 219 226 234 244 250 260 266 275 280 284 277 276 275 282 265 258 229 210 203 198 199 209 165 92 110 83 87 157 164 167 162 173 203 236 270 284 281
191 193 195 200 206 210 215 222 231 238 247 256 262 271 279 282 282 274 273 279 272 253 243 233 217 196 182 186 205 219 213 170 173 181 226 193 183 205 237 270 295 293 300 296
196 200 201 204 210 214 221 228 235 243 251 260 269 273 278 286 285 285 288 277 269 248 233 236 214 187 162 154 155 149 219 234 221 196 193 207 216 235 245 272 287 285 285 288
195 200 203 206 211 218 223 229 237 247 256 265 268 274 280 283 291 291 289 282 249 241 220 213 196 175 170 152 147 54 267 267 246 228 205 207 222 221 223 240 254 272 295 303
198 202 205 209 212 217 223 230 241 254 263 261 269 278 277 291 293 316 330 334 179 173 190 178 175 166 166 171 176 339 294 288 208 206 212 206 193 190 211 226 226 278 304 301
199 202 205 209 214 220 228 237 246 255 258 265 273 285 277 217 146 134 109 98 102 109 131 152 158 163 172 188 252 319 306 85 133 142 151 172 181 186 209 235 270 280 296 299
201 203 205 211 218 225 232 239 244 250 261 274 289 248 164 148 144 133 115 106 106 124 147 154 167 169 181 226 274 188 152 139 146 157 155 163 174 187 256 286 290 287 298 300
201 202 206 211 219 226 225 228 237 249 266 270 212 149 143 141 141 139 123 112 132 135 139 151 168 190 208 202 172 153 148 140 135 138 145 155 301 282 280 292 298 302 305 308
201 205 210 215 221 217 211 218 229 250 205 173 153 149 150 150 149 145 138 137 126 135 138 167 185 185 164 150 151 153 153 153 148 90 321 309 303 301 300 305 307 307 307 308
204 207 210 216 205 205 204 208 216 181 163 155 155 152 146 145 144 135 144 140 114 145 187 157 164 164 164 173 177 170 176 208 267 285 270 267 283 284 284 287 289 291 296 302
201 206 202 199 196 198 194 198 176 161 162 161 154 148 145 147 155 119 116 99 130 145 151 159 170 177 185 188 191 209 228 259 240 243 255 270 281 283 287 292 295 297 300 303
201 197 191 192 193 191 190 183 168 165 166 166 159 168 178 152 156 149 150 157 161 183 181 182 188 197 203 213 224 233 230 248 260 265 274 281 285 291 297 299 301 303 306 308
Height
5494 5496 5498 5500 5503 5506 5508 5510 5513 5514 5517 5523 5525 5530 5538 5545 5550 5555 5559 5562 5566 5571 5575 5576 5577 5577 5578 5580 5580 5579 5579 5578 5580 5583 5582 5581 5581 5581 5584 5584 5586 5583 5582 5582
5487 5489 5491 5494 5497 5499 5502 5506 5508 5511 5515 5520 5524 5529 5536 5542 5545 5550 5555 5560 5563 5566 5569 5571 5571 5571 5570 5571 5570 5569 5568 5565 5564 5566 5569 5568 5567 5566 5571 5574 5576 5577 5577 5578
5480 5482 5484 5488 5488 5493 5499 5503 5506 5509 5513 5519 5525 5530 5533 5539 5544 5548 5553 5557 5559 5561 5562 5564 5565 5566 5564 5562 5559 5557 5556 5555 5551 5547 5552 5553 5553 5552 5558 5563 5565 5567 5571 5573
5474 5476 5479 5481 5486 5490 5495 5498 5503 5508 5513 5519 5524 5528 5534 5538 5542 5546 5550 5552 5554 5555 5556 5557 5557 5555 5553 5551 5547 5545 5544 5543 5537 5534 5534 5535 5534 5537 5544 5549 5556 5558 5566 5565
5469 5471 5475 5479 5483 5486 5492 5496 5502 5508 5513 5516 5522 5527 5531 5537 5541 5543 5545 5547 5548 5549 5549 5548 5545 5544 5543 5543 5539 5534 5532 5530 5526 5528 5524 5520 5517 5522 5529 5538 5548 5552 5557 5560
5465 5468 5472 5477 5481 5486 5492 5497 5502 5507 5512 5517 5521 5526 5531 5535 5537 5539 5540 5541 5542 5541 5540 5539 5539 5537 5536 5534 5531 5526 5524 5522 5519 5520 5516 5513 5511 5514 5522 5534 5539 5547 5550 5554
5463 5467 5471 5476 5482 5487 5492 5497 5502 5507 5512 5517 5521 5524 5528 5531 5533 5534 5534 5535 5535 5536 5534 5533 5531 5529 5526 5524 5523 5520 5519 5515 5513 5512 5512 5512 5512 5514 5520 5527 5538 5543 5545 5547
5461 5465 5471 5476 5481 5486 5492 5497 5501 5505 5511 5516 5520 5523 5525 5527 5528 5529 5530 5530 5530 5529 5529 5527 5523 5521 5520 5519 5516 5513 5511 5508 5508 5509 5510 5511 5511 5513 5519 5524 5532 5535 5541 5540
5459 5464 5469 5475 5480 5485 5491 5495 5500 5506 5510 5514 5517 5519 5522 5523 5524 5525 5525 5525 5524 5524 5521 5518 5516 5515 5515 5515 5512 5509 5504 5500 5504 5507 5507 5507 5509 5511 5515 5523 5528 5532 5534 5537
5457 5462 5468 5474 5479 5484 5490 5495 5500 5504 5508 5512 5514 5516 5518 5518 5520 5521 5521 5520 5519 5517 5514 5513 5511 5512 5513 5512 5509 5506 5503 5503 5505 5506 5506 5509 5508 5510 5513 5520 5527 5526 5531 5535
5455 5460 5466 5472 5478 5483 5488 5493 5498 5502 5505 5507 5510 5512 5514 5515 5516 5516 5515 5515 5513 5511 5509 5508 5509 5510 5512 5510 5507 5506 5506 5505 5505 5506 5506 5508 5507 5510 5512 5516 5520 5524 5531 5533
5453 5458 5465 5471 5476 5481 5486 5492 5496 5499 5503 5506 5508 5509 5510 5510 5510 5510 5510 5510 5508 5507 5504 5504 5506 5508 5509 5509 5507 5506 5507 5507 5506 5506 5506 5507 5507 5510 5512 5513 5520 5525 5529 5532
5452 5458 5463 5469 5474 5480 5485 5490 5493 5497 5499 5502 5504 5504 5505 5505 5506 5506 5506 5505 5504 5502 5501 5501 5503 5506 5507 5508 5508 5507 5506 5507 5509 5509 5509 5508 5508 5509 5511 5514 5519 5525 5528 5530
5449 5455 5462 5467 5473 5478 5483 5486 5489 5493 5496 5498 5499 5500 5501 5501 5501 5501 5501 5501 5500 5499 5498 5498 5500 5504 5505 5507 5507 5508 5509 5508 5508 5510 5511 5511 5512 5513 5516 5519 5523 5526 5528 5530
5447 5453 5459 5466 5471 5475 5479 5484 5487 5490 5493 5494 5494 5495 5496 5496 5496 5496 5496 5496 5496 5495 5494 5495 5497 5500 5503 5505 5507 5507 5508 5508 5509 5511 5513 5513 5515 5517 5519 5521 5523 5523 5526 5526
5445 5452 5458 5464 5468 5472 5477 5481 5484 5485 5487 5490 5491 5491 5491 5491 5491 5491 5491 5491 5491 5491 5491 5491 5493 5496 5501 5503 5505 5506 5507 5508 5509 5511 5512 5514 5516 5517 5518 5520 5521 5521 5521 5521
5444 5450 5456 5461 5466 5470 5475 5478 5480 5482 5483 5485 5486 5486 5487 5486 5486 5485 5485 5485 5484 5485 5486 5487 5489 5493 5497 5500 5502 5504 5505 5507 5508 5510 5512 5514 5515 5516 5517 5518 5519 5519 5519 5520
5442 5448 5453 5458 5463 5467 5471 5474 5476 5478 5480 5481 5482 5482 5481 5481 5480 5479 5478 5477 5477 5477 5479 5482 5485 5490 5495 5498 5499 5500 5502 5503 5505 5507 5510 5512 5513 5515 5515 5516 5517 5517 5517 5517
5440 5446 5451 5456 5460 5464 5468 5470 5473 5475 5478 5477 5477 5477 5477 5476 5475 5473 5471 5469 5469 5470 5472 5476 5482 5487 5492 5495 5498 5499 5500 5500 5500 5501 5503 5506 5508 5510 5512 5513 5514 5514 5514 5515
5438 5444 5449 5453 5458 5462 5465 5467 5470 5471 5472 5472 5472 5472 5472 5472 5471 5470 5469 5466 5466 5468 5471 5475 5481 5486 5491 5494 5497 5498 5497 5496 5496 5497 5500 5503 5506 5508 5510 5512 5513 5513 5513 5512
5436 5441 5447 5451 5455 5458 5461 5464 5467 5468 5468 5468 5468 5469 5468 5469 5470 5470 5470 5469 5470 5471 5475 5478 5482 5487 5491 5494 5495 5496 5495 5494 5495 5498 5500 5503 5505 5507 5508 5509 5509 5508 5508 5507
5434 5439 5444 5448 5452 5455 5459 5461 5463 5464 5464 5464 5464 5465 5466 5469 5470 5471 5472 5472 5473 5474 5477 5480 5484 5488 5490 5492 5493 5494 5494 5496 5497 5498 5500 5502 5504 5505 5505 5505 5505 5504 5502 5501
5432 5437 5441 5446 5450 5453 5456 5458 5459 5461 5461 5461 5462 5465 5468 5470 5472 5473 5473 5474 5476 5478 5480 5483 5485 5487 5489 5490 5492 5493 5495 5496 5498 5499 5500 5501 5502 5502 5502 5501 5499 5498 5496 5494
5430 5435 5440 5444 5447 5451 5453 5455 5457 5458 5459 5460 5463 5466 5469 5471 5472 5474 5475 5477 5479 5481 5482 5484 5485 5487 5488 5490 5492 5494 5495 5496 5497 5498 5498 5498 5498 5498 5497 5496 5494 5493 5491 5488
5428 5433 5437 5441 5446 5449 5451 5453 5455 5456 5458 5461 5464 5468 5471 5472 5474 5476 5478 5479 5480 5481 5483 5484 5485 5487 5489 5491 5492 5494 5495 5496 5496 5496 5496 5495 5495 5494 5493 5492 5490 5487 5484 5481
5427 5431 5435 5440 5444 5447 5450 5452 5454 5457 5460 5463 5467 5470 5473 5474 5475 5477 5478 5479 5479 5482 5483 5484 5486 5487 5489 5490 5491 5492 5493 5493 5493 5493 5493 5492 5492 5491 5489 5487 5483 5480 5476 5471
5424 5429 5434 5438 5442 5445 5448 5450 5453 5457 5461 5465 5468 5471 5474 5475 5476 5478 5479 5480 5481 5482 5483 5484 5486 5487 5488 5489 5489 5490 5490 5490 5491 5491 5490 5490 5488 5486 5483 5480 5476 5471 5466 5461